Вернуться в каталог

XINGSHIDAI 8

АктивенНаукаSSO
NORAD 44889·PAYLOAD·🇨🇳 China
Это название спутника еще не подтверждено официальными источниками.

Запущен Dec 20, 2019 с Taiyuan Satellite Launch Center

Loading…

Ближайшие Пролёты (ближайшие 24 часа)

TLE

СвежийSource: Space-Track

Эпоха: Sep 14, 2026, 11:44 UTC

1 44889U 19093L   26257.48916529  .00001992  00000-0  18760-3 0  9997
2 44889  97.7494 334.6906 0013014 111.3987 248.8624 14.94913138365141

Отслеживайте XINGSHIDAI 8 в реальном времени с AllMySat

Download on the App Store